星链-3122 (STARLINK-3122 )

导读 | 星芒AI

STARLINK-3122 是 SpaceX Starlink 卫星互联网项目中的一颗低轨卫星,属于第 12 批次部署的星链卫星之一。该卫星于 2023 年发射,运行在约 550 公里的轨道高度,旨在为全球用户提供高速、低延迟的宽带互联网服务。作为星链星座的重要组成部分,STARLINK-3122 与其他卫星协同工作,提升网络覆盖与连接稳定性,尤其在偏远和网络基础设施薄弱地区发挥关键作用。

基本信息
目录编号:
49445
目录名称:
STARLINK-3122
国际标识:
2021-104AP
轨道中心:
EARTH
卫星名称:
星链-3122
卫星全名:
星链-3122 (STARLINK-3122 )
卫星状态:
在轨 (已飞行1497 天)
发射日期:
2021-11-13 UTC
国别 :
美国 (US)
星等 :
--
轨道信息
数据来源 国际轨道数据 AOE轨道数据
星历时间 2025-12-19T04:28:30+0800
1天前
查看轨道信息
2025-12-15T18:00:00+0800
4天前
查看轨道信息
半长轴 6917.853km 6917.934km
偏心率 0.0001417 0.0001347
轨道倾角 53.217° 53.215°
近地点辐角 90.214° 103.043°
升交点赤经 222.407° 237.835°
平近点角 269.901° 300.601°
近地点 538.737km 538.867km
远地点 540.699km 540.731km
周期 95.437分钟 95.439分钟
每日圈数 15.08849 15.088226
详细信息
固有亮度:
5
最大亮度:
2.5
卫星平台:
Starlink v1.5
覆盖范围:
全球
运营商:
太空探索技术公司
运营商所在国:
美国
制造商(研发单位):
太空探索技术公司
制造商所在国:
美国
使用方式:
暂无
卫星简介
星链(Starlink)计划是由太空探索技术公司(SpaceX)提出的一个巨型低轨卫星互联网星座项目,计划在2019年至2024年间在太空搭建由约1.2万颗卫星组成的“星链”网络,其中1584颗将部署在地球上空550千米处的近地轨道,并从2020年开始工作。该卫星仍在工作。
2D轨道图
3D轨道图
轨道高度分析图
轨道倾角分析图
轨道综合分析图
查看轨道综合分析图